Content
SEND FEEDBACK

Daily
Averages
Monthly
Summary
United Kingdom

LIZARD, ENGLAND


Home > Europe > United Kingdom > England
Elevation: 240 feet     Latitude: 49 57N     Longitude: 005 12W

WEATHER
 
SELECT A DAY
Number of Records: 180,444;   Date Range: 7/1/96 - 9/19/14
 
SHARE

PRINT THIS DATA

[ ← Previous Day ]
WEATHER ALMANAC - JULY 20, 2014
[ Next Day → ]
[ °C ]   °F
Weather ElementAverageHighLow
Temperature65 °F71.6 °F (12:50 pm)57.2 °F (3:50 am)
Dewpoint58.4 °F60.8 °F (6:50 am)56 °F (12:00 pm)
Humidity77.6 %100 % (3:50 am)52 % (12:00 pm)
Barometer29.97 in30.08 in (11:00 pm)29.85 in (1:00 am)
Wind Speed7.4 mph11.5 mph (12:50 pm)
Weather ElementAverage
Visibility10.6 mi
Wind DirectionWSW (246.4 °)

Weather ElementTotal
Precipitation---
Heating Degree Days0.6 (Base 65)
Growing Degree Days14.4 (Base 50)
Averaged from 45 records on July 20, 2014
WEATHER CONDITIONS BREAKOUT
WIND DIRECTION BREAKOUT
WEATHER BY HOUR - JULY 20, 2014
[ °C ]   °F
Local TimeTemperatureDewpointHumidityBarometerVisibilityWind DirectionWind SpeedGust SpeedPrecipitationEventsConditions
12:50 AM60.8 °F59.0 °F94 %ESE (110°)6.9 mph
1:00 AM61.0 °F59.0 °F92 %29.85 in7.0 miESE (110°)5.8 mphHaze
1:50 AM60.8 °F59.0 °F94 %NE (40°)4.6 mph
2:00 AM60.0 °F59.0 °F95 %NE (40°)4.6 mph
3:00 AM59.0 °F58.0 °F94 %East (90°)4.6 mph
3:50 AM57.2 °F57.2 °F100 %East (80°)4.6 mph
4:00 AM58.0 °F57.0 °F94 %29.85 in4.0 miEast (80°)4.6 mphMist
4:50 AM59.0 °F59.0 °F100 %NE (50°)3.5 mph
5:00 AM59.0 °F58.0 °F97 %NE (50°)3.5 mph
5:50 AM60.8 °F59.0 °F94 %NNE (30°)3.5 mph
6:00 AM60.0 °F60.0 °F98 %29.87 in2.0 miNNE (30°)3.5 mphMist
6:50 AM62.6 °F60.8 °F94 %NNW (330°)4.6 mph
7:00 AM62.0 °F60.0 °F92 %29.87 in5.0 miNNW (330°)4.6 mphHaze
7:50 AM64.4 °F60.8 °F88 %NW (320°)5.8 mph
8:00 AM64.0 °F60.0 °F84 %29.87 in9.0 miNW (320°)4.6 mphHaze
8:50 AM66.2 °F60.8 °F83 %NNE (20°)3.5 mph
9:00 AM66.0 °F60.0 °F76 %29.89 in11.0 miNNE (20°)3.5 mphHaze
9:50 AM66.2 °F57.2 °F73 %NNW (330°)6.9 mph
10:00 AM66.0 °F58.0 °F67 %29.90 in12.0 miNNW (330°)5.8 mphPartly Cloudy
10:50 AM69.8 °F59.0 °F68 %North (350°)8.1 mph
11:00 AM69.0 °F58.0 °F60 %29.91 in16.0 miNorth (350°)6.9 mphPartly Cloudy
12:00 PM70.0 °F56.0 °F52 %29.93 in16.0 miNNW (330°)6.9 mphPartly Cloudy
12:50 PM71.6 °F59.0 °F64 %NW (320°)11.5 mph
1:00 PM71.0 °F59.0 °F57 %29.93 in17.0 miNW (320°)9.2 mphPartly Cloudy
1:50 PM69.8 °F59.0 °F68 %NW (320°)10.4 mph
2:00 PM70.0 °F59.0 °F59 %29.94 in17.0 miNW (320°)8.1 mphPartly Cloudy
2:50 PM69.8 °F57.2 °F64 %29.95 in6.2 miNNW (340°)11.5 mphScattered Clouds
3:00 PM70.0 °F58.0 °F56 %29.96 in16.0 miNNW (340°)11.5 mphMostly Cloudy
3:50 PM69.8 °F57.2 °F64 %29.98 in6.2 miNW (320°)11.5 mphPartly Cloudy
4:00 PM70.0 °F58.0 °F56 %29.97 in16.0 miNW (320°)11.5 mphPartly Cloudy
4:50 PM69.8 °F57.2 °F64 %29.98 in6.2 miNW (320°)11.5 mphPartly Cloudy
5:00 PM70.0 °F57.0 °F53 %29.98 in12.0 miNW (320°)11.5 mphPartly Cloudy
5:50 PM69.8 °F57.2 °F64 %29.98 in6.2 miNW (320°)11.5 mphPartly Cloudy
6:00 PM69.0 °F57.0 °F57 %29.98 in19.0 miNW (320°)11.5 mphScattered Clouds
6:50 PM68.0 °F57.2 °F68 %29.98 in6.2 miNW (320°)11.5 mphPartly Cloudy
7:00 PM67.0 °F58.0 °F64 %30.00 in16.0 miNW (320°)11.5 mphPartly Cloudy
7:50 PM66.2 °F59.0 °F78 %30.01 in6.2 miNW (320°)10.4 mphPartly Cloudy
8:00 PM66.0 °F58.0 °F69 %30.02 in16.0 miNW (320°)10.4 mphScattered Clouds
8:50 PM64.4 °F59.0 °F83 %30.04 in6.2 miNW (310°)6.9 mphMostly Cloudy
9:00 PM64.0 °F59.0 °F80 %30.04 in16.0 miNW (310°)6.9 mphPartly Cloudy
9:50 PM62.6 °F59.0 °F88 %30.06 in6.2 miNW (310°)6.9 mphMostly Cloudy
10:00 PM62.0 °F58.0 °F84 %30.06 in16.0 miNW (310°)6.9 mphScattered Clouds
10:50 PM60.8 °F57.2 °F88 %30.06 in6.2 miNW (320°)6.9 mphPartly Cloudy
11:00 PM61.0 °F58.0 °F85 %30.08 in12.0 miNW (320°)6.9 mphScattered Clouds
11:50 PM60.8 °F57.2 °F88 %30.06 in6.2 miNW (310°)5.8 mphMostly Cloudy
Hourly data recorded from EGDR, located miles away from Lizard, England







STORIES FROM OUR PARTNERS